Lapse_Rate
5.0 5.2 5.1 5.4 5.7 5.5 5.7 5.4 5.6 5.6 5.6 5.9 6.5 6.2 5.9 6.1 6.2 6.3 6.0 5.6 5.8 5.7 5.9 5.8 5.9 6.0 6.1 6.2 6.2 6.4 6.5 6.4 6.4 6.4 6.1 6.0 5.9 5.9 6.0 6.1 6.4 6.5 6.7 6.7 6.5 6.3 6.3 6.3 6.2
4.9 5.0 5.3 5.4 5.5 5.4 5.6 5.5 5.5 5.6 6.0 5.7 5.9 5.8 5.7 6.0 5.9 6.3 6.2 5.9 5.8 5.7 5.8 5.8 5.9 5.8 6.0 6.3 6.4 6.6 6.4 6.4 6.2 6.1 6.1 6.2 6.2 6.2 6.2 6.3 6.2 6.4 6.5 6.5 6.3 6.2 6.2 6.2 6.2
4.9 4.9 5.2 5.3 5.2 5.3 5.6 5.6 5.5 5.6 5.6 6.1 6.1 5.9 5.5 5.6 6.1 6.2 6.0 5.9 5.8 5.7 5.8 5.8 5.9 6.0 5.9 5.8 5.9 6.3 6.5 6.5 6.2 6.1 6.1 6.2 6.2 6.1 5.9 6.1 6.1 6.1 6.3 6.5 6.5 6.6 6.5 6.5 6.4
4.8 4.9 5.0 5.2 5.0 5.0 5.7 5.5 5.8 5.8 5.5 5.7 5.8 5.9 5.7 5.5 5.9 5.9 5.8 5.8 5.9 5.8 5.8 5.9 6.1 5.9 5.8 5.8 6.0 6.1 6.2 6.2 6.3 6.4 6.3 6.3 6.3 6.0 5.9 5.8 6.0 6.3 6.5 6.6 6.5 6.4 6.5 6.5 6.4
5.0 4.9 4.8 5.0 4.9 4.8 5.4 5.4 5.6 5.6 5.5 5.9 5.7 5.8 5.9 5.8 5.7 5.7 5.7 5.9 5.8 5.8 5.9 6.0 6.1 5.9 5.8 5.9 5.8 5.7 5.7 5.8 6.0 6.3 6.2 6.2 6.1 6.2 6.1 6.1 6.3 6.5 6.6 6.6 6.4 6.3 6.2 6.3 6.2
5.1 5.1 5.1 5.2 4.9 5.0 5.2 5.2 5.5 5.6 5.9 6.0 5.6 5.7 5.9 5.8 5.6 5.6 5.7 5.9 5.8 5.6 5.9 6.1 6.0 6.0 6.1 5.9 5.8 5.9 5.9 5.8 6.0 6.2 6.3 6.3 6.3 6.3 6.3 6.5 6.6 6.7 6.5 6.4 6.3 6.2 6.3 6.5 6.3
5.2 5.1 5.2 5.2 4.9 5.6 5.5 5.4 5.3 5.7 5.7 5.7 5.6 5.6 6.1 5.8 5.4 5.4 5.6 5.7 5.7 5.7 5.9 5.9 5.9 6.1 6.2 6.0 6.0 6.0 6.1 6.0 6.2 6.3 6.3 6.3 6.4 6.3 6.5 6.5 6.6 6.7 6.6 6.5 6.4 6.2 6.3 6.3 6.5
4.8 5.2 5.2 5.1 5.0 5.3 5.1 5.6 5.7 5.5 5.2 5.4 5.3 5.6 6.1 6.2 5.6 5.4 5.7 5.6 5.5 5.7 5.9 5.8 5.9 6.3 6.2 6.1 6.2 6.2 6.3 6.2 6.1 6.2 6.3 6.4 6.3 6.3 6.3 6.3 6.4 6.6 6.6 6.5 6.6 6.3 6.3 6.3 6.4
4.9 5.2 5.2 5.2 4.6 5.0 5.2 5.8 5.4 5.4 5.2 5.4 5.7 5.7 5.9 6.1 5.7 5.6 5.6 5.7 5.6 5.8 5.9 5.8 6.0 6.1 6.1 6.1 6.3 6.2 6.5 6.3 6.2 6.2 6.4 6.4 6.4 6.3 6.3 6.4 6.6 6.7 6.8 6.7 6.6 6.5 6.6 6.4 6.4
5.0 5.4 5.0 5.2 5.0 5.5 5.4 6.0 6.2 5.8 5.3 5.6 5.9 5.9 5.5 5.5 5.6 5.6 5.6 5.5 5.7 5.9 5.9 5.9 5.9 6.0 6.2 6.0 6.1 6.1 6.3 6.3 6.2 6.1 6.2 6.2 6.2 6.2 6.2 6.4 6.5 6.6 6.7 6.6 6.4 6.4 6.5 6.3 6.2
5.4 5.5 5.3 5.4 5.4 5.3 5.9 5.9 6.0 5.9 5.7 5.9 5.8 5.9 5.8 5.5 5.6 5.5 5.6 5.5 5.6 5.8 5.7 5.8 6.0 6.0 6.0 5.9 6.1 6.1 6.1 6.2 6.3 6.1 6.1 6.2 6.1 6.1 6.2 6.3 6.2 6.1 6.0 6.1 5.9 5.9 6.0 6.2 6.3
5.6 5.8 5.6 5.5 5.3 5.6 5.9 5.8 6.0 6.0 5.9 5.6 5.8 5.8 5.6 5.5 5.4 5.6 5.6 5.8 5.7 5.6 5.6 5.9 6.1 6.0 6.0 5.8 6.0 6.2 6.0 5.9 6.0 6.0 6.0 6.1 6.0 6.1 6.0 6.0 6.0 5.8 5.8 6.0 5.8 5.7 5.9 5.9 5.8
5.9 5.9 6.1 5.7 5.3 5.5 5.8 5.7 5.9 5.5 5.6 5.4 5.6 5.4 5.4 5.3 5.4 5.6 5.5 5.7 5.7 5.6 5.7 5.7 6.0 6.0 5.9 5.7 5.8 6.1 6.0 5.9 6.0 5.9 5.9 6.0 6.0 5.8 5.6 5.8 5.8 5.8 5.7 5.8 5.6 5.7 6.0 5.9 5.9
5.7 6.0 6.1 5.9 5.6 5.4 5.7 5.6 5.7 5.7 5.8 5.6 5.4 5.5 5.3 5.3 5.5 5.7 5.6 5.5 5.6 5.6 5.8 5.6 5.9 6.0 5.9 5.7 5.7 5.8 6.1 6.0 5.9 6.1 6.0 5.8 5.8 6.0 5.8 5.9 5.9 5.8 5.7 5.7 5.6 5.7 5.6 6.0 6.1
5.7 6.0 6.0 5.5 5.4 5.6 5.6 5.4 5.6 5.7 6.1 5.7 5.4 5.7 5.6 5.5 5.4 5.3 5.1 5.2 5.5 5.7 5.6 5.7 5.8 5.7 5.8 5.7 5.7 5.7 5.7 5.8 5.7 5.8 5.9 5.7 5.7 5.8 5.9 5.8 5.7 5.6 5.4 5.5 5.5 5.3 5.7 5.9 6.1
6.1 5.9 5.8 5.8 5.7 5.7 5.7 5.5 5.6 5.8 5.9 5.6 5.6 5.7 5.7 5.6 5.2 5.2 5.1 5.3 5.3 5.4 5.4 5.7 6.0 5.7 5.5 5.9 5.7 5.7 5.4 5.6 5.8 5.8 5.7 5.7 5.7 5.8 5.9 5.8 5.8 5.6 5.5 5.4 5.7 5.6 5.8 5.9 6.1
6.0 6.4 6.2 6.1 5.6 5.8 5.7 5.8 5.7 5.9 5.9 5.5 5.8 5.8 5.8 5.4 5.2 5.0 5.2 5.3 5.1 5.3 5.3 5.6 5.8 5.9 5.5 5.7 5.7 5.7 5.8 5.6 5.9 5.9 5.8 5.5 5.7 5.8 5.9 5.7 5.7 5.6 5.6 5.6 5.6 5.7 5.6 5.7 5.9
6.1 6.2 6.4 6.9 6.4 6.2 6.0 5.9 6.2 5.7 5.7 5.6 5.7 6.1 5.6 5.4 5.4 5.4 5.1 5.3 5.2 5.2 5.4 5.6 5.8 5.7 5.7 5.7 5.9 5.7 6.0 5.8 5.6 5.7 5.7 5.6 5.6 5.6 5.5 5.7 5.6 5.7 5.3 5.5 5.4 5.4 5.5 5.5 5.8
6.7 6.7 6.7 6.5 6.5 6.4 6.1 5.8 5.9 5.8 5.7 5.7 5.9 5.8 5.8 6.1 5.7 5.4 5.2 5.2 5.3 5.3 5.5 5.6 5.8 5.9 5.8 5.7 5.9 5.8 6.0 6.0 5.9 5.9 5.7 5.5 5.7 5.8 5.5 5.6 5.6 5.5 5.5 5.5 5.4 5.5 5.3 5.3 5.9
6.9 7.1 7.2 7.0 6.7 5.8 5.4 5.7 5.8 5.9 6.2 5.4 5.9 5.7 5.8 5.9 6.0 5.6 5.5 5.3 5.4 5.3 5.4 5.5 5.9 6.1 5.8 5.8 5.8 6.1 6.0 6.0 5.8 6.1 5.8 5.8 5.7 5.7 5.6 5.8 5.6 5.4 5.5 5.4 5.3 5.4 5.2 5.2 5.8
7.2 7.5 7.2 7.2 6.9 6.3 6.2 5.9 6.0 5.9 5.8 5.4 5.4 5.8 5.9 6.0 5.8 5.6 5.5 5.7 5.5 5.5 5.4 5.5 5.7 5.9 6.0 6.0 5.9 6.0 5.9 5.8 5.6 5.8 5.8 5.8 5.8 5.8 5.8 5.8 5.8 5.6 5.4 5.4 5.4 5.2 5.1 5.2 5.4
7.3 7.8 7.6 7.5 7.1 6.9 6.3 6.0 6.5 6.0 5.8 5.7 5.2 5.8 5.8 6.0 5.4 5.6 5.6 5.8 5.6 5.5 5.4 5.3 5.4 5.6 5.8 6.0 6.1 5.8 5.7 5.8 5.6 5.8 5.8 5.8 5.8 5.8 5.9 5.8 5.9 5.9 5.6 5.3 5.3 5.2 5.1 5.3 5.1
7.6 7.9 8.2 7.6 7.4 7.5 6.8 6.9 7.1 6.4 6.3 6.3 6.0 6.0 6.1 5.9 5.9 5.7 5.8 5.8 5.8 5.4 5.2 5.2 5.3 5.4 5.5 5.7 5.8 6.0 5.8 5.8 5.7 5.8 5.7 5.8 5.8 5.7 5.6 5.6 5.6 5.6 5.5 5.5 5.5 5.2 5.2 5.3 5.0
7.5 7.7 7.9 7.5 7.2 6.7 7.6 7.1 7.3 7.3 6.9 6.2 6.2 6.0 6.0 6.0 6.3 5.9 5.6 5.6 5.4 5.5 5.0 5.2 5.4 5.5 5.6 5.6 5.7 5.7 5.8 5.7 5.8 5.6 5.6 5.6 5.6 5.6 5.6 5.6 5.7 5.8 5.6 5.7 5.7 5.4 5.3 5.3 5.2
7.2 7.5 7.4 6.6 6.4 6.3 7.6 7.0 7.6 7.2 7.2 6.7 6.0 6.0 5.8 6.0 5.8 5.8 5.6 5.6 5.3 5.4 5.2 5.2 5.3 5.5 5.5 5.6 5.4 5.6 5.7 5.6 5.5 5.6 5.7 5.5 5.5 5.6 5.5 5.5 5.5 5.7 5.8 5.7 5.8 5.5 5.3 5.2 5.3
7.2 7.5 7.6 6.5 5.6 7.2 7.4 6.8 7.5 7.8 7.5 7.0 6.7 6.3 6.2 6.2 6.4 5.9 5.6 5.7 5.4 5.6 5.5 5.2 5.2 5.2 5.1 5.3 5.4 5.6 5.6 5.6 5.6 5.4 5.5 5.7 5.5 5.6 5.7 5.5 5.5 5.5 5.6 5.5 5.4 5.5 5.6 5.5 5.5
7.6 7.8 8.1 8.1 7.3 7.3 6.7 7.3 7.7 7.7 7.7 7.4 7.4 7.1 6.4 6.2 6.2 6.0 5.9 6.0 5.4 5.5 5.6 5.1 5.1 5.0 5.1 5.3 5.2 5.6 5.5 5.6 5.4 5.4 5.4 5.7 5.5 5.5 5.5 5.4 5.5 5.7 5.7 5.5 5.4 5.4 5.5 5.8 5.8
7.9 8.1 8.0 8.1 6.7 6.8 6.2 7.0 7.9 8.0 8.0 7.6 7.4 7.3 6.9 6.7 6.2 6.0 5.9 5.9 5.6 5.5 5.5 5.3 5.3 5.2 5.1 5.1 5.3 5.5 5.6 5.5 5.5 5.5 5.4 5.5 5.4 5.4 5.4 5.4 5.5 5.6 5.6 5.5 5.5 5.4 5.4 5.6 5.7
8.0 8.1 8.3 8.3 7.9 5.9 5.5 6.8 7.9 8.0 8.0 7.7 7.4 7.4 7.3 7.0 6.8 6.6 6.4 6.0 5.8 6.0 6.0 5.8 5.5 5.3 5.2 4.9 5.3 5.6 5.4 5.6 5.6 5.6 5.5 5.4 5.5 5.4 5.4 5.3 5.4 5.5 5.6 5.7 5.6 5.6 5.5 5.5 5.7
8.2 8.4 8.2 8.4 7.3 7.7 7.3 7.5 7.9 8.0 8.1 7.6 7.0 7.0 7.2 7.1 6.8 6.5 6.3 6.2 6.2 5.9 5.6 5.4 5.6 5.3 5.4 5.2 5.4 5.5 5.7 5.6 5.9 5.7 5.7 5.5 5.4 5.5 5.5 5.3 5.4 5.2 5.4 5.4 5.5 5.5 5.5 5.4 5.6
Wind_Speed
5 6 1 1 3 3 2 3 1 8 6 4 10 4 3 3 1 3 2 4 11 8 12 11 12 10 10 9 8 10 10 10 10 11 12 12 12 12 13 15 16 18 18 19 18 16 18 17 16
8 3 2 1 4 2 2 4 3 2 7 15 6 7 4 3 4 8 5 8 13 12 13 13 11 11 9 10 9 9 9 10 10 10 11 12 12 12 13 14 15 16 18 17 16 15 17 16 17
6 1 2 3 3 3 1 4 3 3 13 15 3 7 3 2 8 6 7 11 12 9 13 13 11 11 10 9 9 10 11 10 10 10 10 12 12 13 12 15 15 16 16 16 14 13 12 12 11
3 2 1 3 4 0 3 6 1 2 7 7 6 7 5 6 7 6 12 13 8 8 13 12 13 12 10 9 8 11 10 11 10 11 11 11 12 13 13 15 15 16 16 14 12 10 8 8 7
0 1 2 4 5 4 2 2 3 1 3 6 2 4 5 3 12 12 12 10 10 6 9 13 12 12 10 10 9 9 10 11 9 11 11 11 12 12 13 14 16 15 15 13 10 10 10 13 13
1 1 2 3 6 5 1 2 3 2 3 7 7 6 3 8 13 10 10 10 10 7 8 10 11 13 10 10 9 10 11 11 11 10 11 11 11 11 12 13 15 15 13 12 11 13 14 14 12
1 1 1 5 9 5 5 6 3 6 7 5 7 6 6 5 7 8 8 8 9 9 7 7 9 10 10 10 11 11 11 11 11 11 11 10 10 10 11 12 14 14 11 11 11 10 9 10 10
1 0 0 4 10 5 7 4 6 7 4 8 9 7 8 7 10 9 8 7 6 6 7 6 5 10 8 9 10 12 11 11 11 11 11 10 10 11 11 13 13 13 10 10 8 7 9 10 11
2 2 1 4 8 7 7 6 3 3 10 2 2 11 12 14 13 10 9 5 5 5 4 5 6 7 6 6 10 11 11 11 12 12 11 13 12 11 12 12 13 11 9 8 7 7 8 10 10
2 2 2 3 5 11 8 10 6 6 6 9 13 16 15 14 13 12 10 10 7 5 4 4 5 5 5 4 8 10 11 11 13 14 11 10 10 11 10 11 11 11 9 7 6 4 5 4 4
2 3 1 4 9 14 7 5 1 13 4 14 17 17 15 13 10 9 7 7 6 4 4 4 5 4 3 6 7 8 9 11 11 10 9 8 8 8 9 11 10 11 8 8 7 5 3 1 1
2 3 1 9 14 12 12 5 10 4 5 14 20 18 14 14 11 10 8 6 6 6 5 5 6 4 3 6 6 6 5 8 8 4 6 7 6 6 7 9 8 8 6 7 5 6 9 7 9
3 0 9 13 16 13 15 9 8 3 12 14 17 16 14 11 9 6 6 6 6 5 6 6 7 6 5 6 6 5 3 5 5 4 6 7 6 4 4 5 5 5 6 5 4 6 6 4 5
2 4 14 9 11 8 11 7 12 10 11 16 18 15 13 13 12 8 7 8 7 6 6 6 6 8 8 5 5 4 4 2 5 4 6 6 6 2 4 5 6 5 4 3 2 4 3 5 6
5 5 6 9 8 6 13 5 5 8 15 18 16 15 13 11 10 10 9 8 9 5 6 7 6 10 8 7 7 5 4 4 2 5 8 6 4 4 2 3 3 3 4 5 8 8 8 6 5
5 4 5 6 8 3 2 8 6 11 21 18 17 14 13 12 12 8 7 6 6 6 7 6 6 6 6 7 8 6 5 6 5 4 6 4 3 2 3 1 1 2 6 7 4 2 3 2 2
7 4 3 5 4 5 3 3 6 11 18 16 16 16 13 13 10 9 9 8 6 6 7 7 6 6 6 7 8 6 6 3 5 5 5 5 6 4 2 2 2 4 4 5 2 1 0 1 1
4 2 3 7 7 2 4 2 12 8 15 16 14 15 14 12 13 14 12 10 7 6 6 6 4 6 5 6 6 5 6 3 4 3 2 3 3 5 1 1 1 2 2 2 2 2 1 1 2
5 6 4 1 11 11 14 3 8 6 5 16 15 14 16 15 12 11 12 11 8 7 7 7 7 6 4 3 3 3 3 2 1 4 3 4 4 5 2 1 2 3 2 2 2 2 4 2 2
3 2 2 4 10 5 2 4 8 10 3 10 13 16 16 13 12 12 12 12 11 11 8 7 7 7 5 3 2 3 3 2 2 5 6 4 4 5 5 5 3 1 2 2 1 3 2 1 2
1 3 3 5 4 4 8 4 5 3 1 1 2 12 12 15 14 13 14 14 12 11 11 10 9 8 5 5 3 3 4 3 1 0 2 4 6 7 5 5 4 2 1 2 1 3 3 1 2
4 6 3 11 5 4 2 4 5 8 9 5 8 8 13 14 14 15 14 13 14 12 10 8 7 7 6 7 4 5 4 3 3 2 2 3 6 5 5 5 6 5 4 2 0 3 2 1 3
7 5 5 4 4 4 4 2 2 11 12 16 13 10 10 13 16 17 19 17 13 11 11 9 8 7 6 6 6 5 4 3 2 1 2 2 3 4 4 5 6 5 3 3 2 2 3 1 2
5 4 6 5 3 1 6 5 3 6 12 15 12 12 10 14 14 15 15 13 10 8 9 8 9 8 7 7 6 7 7 5 3 2 3 2 2 2 4 5 5 6 5 3 2 3 3 3 2
4 6 2 3 2 5 4 5 3 4 8 10 15 8 8 10 12 13 15 11 7 9 12 9 10 10 9 8 6 6 6 6 6 4 3 4 2 2 4 4 5 4 4 5 5 3 2 2 2
6 8 5 5 5 4 3 5 3 3 8 5 9 10 9 7 9 12 12 14 15 12 10 10 12 11 9 8 7 6 6 4 4 4 3 3 3 3 5 6 7 7 5 5 5 2 2 3 2
4 4 6 7 3 3 2 3 2 4 8 10 10 11 10 7 5 7 7 11 9 8 9 12 10 10 9 8 5 5 4 5 5 5 3 3 3 3 5 6 6 7 7 6 5 3 3 2 2
5 5 4 3 4 2 3 4 4 4 5 6 8 8 7 8 7 5 4 8 9 8 4 6 6 6 4 5 5 4 5 5 4 4 4 4 3 4 3 4 6 6 7 7 5 3 3 3 2
2 1 6 6 4 5 4 6 3 5 8 8 7 6 5 5 4 4 4 1 7 7 5 5 6 7 6 3 3 5 4 4 3 3 4 4 3 3 4 4 4 5 5 6 4 4 4 4 3
2 3 4 5 4 1 3 4 3 4 6 7 7 6 4 4 3 2 4 4 5 9 7 6 7 6 7 3 2 3 2 3 3 3 5 3 4 4 4 4 4 5 5 4 5 5 5 5 5
Wind_Direction
152 139 216 346 53 55 37 16 255 105 137 148 167 137 156 76 117 158 140 151 125 124 132 128 118 117 114 111 105 104 109 109 100 104 109 108 105 101 97 97 94 98 99 102 106 104 105 104 99
145 163 30 58 76 17 38 308 75 69 143 146 174 126 51 75 71 114 112 144 128 129 129 128 127 120 116 117 111 103 108 114 110 107 103 106 107 102 99 101 102 98 100 102 103 103 105 102 99
153 248 90 108 89 158 290 301 30 2 140 147 152 39 61 70 107 139 139 132 117 118 130 132 127 128 126 113 120 108 102 108 116 112 109 105 105 101 100 107 108 112 113 108 106 105 107 108 107
181 35 313 86 175 112 192 191 31 327 113 123 118 74 75 87 136 136 134 119 108 115 133 132 129 126 120 114 110 113 102 98 109 109 110 109 109 107 109 110 113 110 108 102 100 99 107 111 101
264 323 214 147 183 131 32 13 92 10 104 128 67 81 82 24 113 129 127 120 119 118 133 126 128 127 128 119 116 112 109 102 101 109 109 111 114 117 112 108 104 105 103 102 90 83 93 118 100
179 286 264 113 151 116 165 191 126 215 84 110 98 86 65 130 124 135 123 116 116 117 129 142 133 127 126 119 117 109 110 105 103 106 110 115 109 104 103 97 100 100 104 98 88 82 87 106 102
250 234 286 106 127 122 180 142 232 140 110 99 123 108 123 134 129 113 107 105 101 115 118 118 121 127 124 111 114 112 107 105 102 107 104 102 101 109 108 105 98 101 105 102 96 87 87 110 104
229 62 181 108 162 129 158 177 127 116 71 104 145 143 155 158 121 101 96 90 97 108 118 112 92 101 101 112 111 106 112 109 108 107 103 95 87 96 97 107 100 102 110 102 92 94 83 120 112
242 317 312 132 169 131 154 146 134 95 125 70 86 132 126 125 117 111 117 99 108 117 108 117 107 105 108 104 111 108 109 112 101 94 80 71 77 88 90 91 96 100 96 108 102 84 94 101 123
139 173 253 142 137 138 156 133 132 126 131 103 93 100 124 131 136 143 152 156 157 146 129 125 125 126 122 87 99 93 98 91 88 89 80 71 73 76 76 89 91 92 96 89 86 75 73 88 98
178 225 316 130 137 133 113 101 78 131 108 155 141 140 141 139 141 147 152 166 168 151 145 148 147 146 124 104 100 93 102 105 103 93 77 87 75 72 74 77 71 76 73 71 58 32 3 353 238
264 255 307 139 138 128 137 132 132 124 154 152 142 146 147 157 161 163 165 169 159 158 153 158 163 164 140 125 104 103 104 119 113 98 96 103 84 74 68 80 71 64 57 65 25 347 315 295 264
227 270 117 129 139 129 130 151 136 146 128 135 139 151 157 155 157 164 167 146 148 164 164 167 162 172 166 144 130 122 102 125 123 118 112 121 108 93 66 64 82 72 44 62 25 352 337 356 297
180 78 131 120 135 137 141 133 129 211 139 144 153 160 169 165 168 156 165 169 162 170 168 164 170 171 165 154 162 155 145 157 129 155 143 132 127 86 49 33 26 70 79 47 29 336 30 36 57
156 83 107 153 175 148 134 123 185 156 155 154 162 166 172 170 169 185 180 180 168 183 158 177 175 172 168 168 169 165 160 160 115 140 156 152 136 102 85 36 61 42 47 63 23 28 32 43 60
130 79 136 195 159 90 126 204 213 153 167 165 164 170 173 178 178 177 175 180 169 157 172 173 188 176 168 172 175 180 192 167 140 120 157 174 164 158 107 56 70 60 71 59 35 21 27 29 40
20 156 151 160 146 131 189 131 170 157 168 171 167 177 175 178 167 181 179 175 167 171 165 180 182 176 173 191 180 174 163 151 169 146 137 140 129 122 124 177 150 98 81 83 55 81 242 77 316
173 125 277 148 195 209 220 242 152 145 167 177 176 176 181 183 184 180 174 168 160 166 163 160 172 161 163 137 130 112 113 133 147 154 135 144 138 171 166 310 116 77 112 86 43 64 311 24 339
146 124 217 167 176 160 212 144 176 192 170 177 183 180 190 196 182 172 172 165 152 154 158 165 159 162 153 145 132 116 152 169 153 158 171 139 166 188 190 168 97 58 92 112 82 44 22 360 358
105 103 97 11 165 115 2 265 220 183 181 188 180 182 196 190 167 167 169 171 177 172 169 164 174 176 179 150 132 135 154 161 139 162 175 167 167 207 158 151 133 135 99 89 76 73 43 346 353
123 169 181 148 108 26 113 313 235 211 164 212 225 190 185 178 171 169 173 179 177 176 177 178 179 179 179 160 114 84 85 74 57 75 163 184 188 212 198 160 150 151 146 156 110 100 84 20 340
161 205 161 137 150 160 154 210 189 203 208 209 208 197 186 177 179 167 174 183 182 187 180 173 175 177 186 172 162 155 159 156 200 187 169 173 196 198 203 170 162 168 128 124 112 100 93 122 35
209 166 177 167 104 98 210 123 242 172 212 221 218 205 194 173 172 179 181 186 189 176 185 177 169 183 186 186 184 168 156 152 149 166 168 190 198 198 204 198 173 161 138 162 136 114 102 82 90
161 136 51 51 100 45 217 157 240 185 229 224 223 204 189 179 181 182 180 183 171 160 178 181 177 192 184 189 200 185 173 162 161 178 200 185 196 194 217 191 178 178 175 177 142 126 109 96 73
100 72 47 39 78 213 198 144 241 293 313 243 210 195 179 179 166 169 169 161 153 174 189 178 181 200 187 188 195 202 193 177 182 182 193 167 178 205 231 201 188 192 195 180 167 158 146 134 101
179 151 150 159 163 214 105 211 261 350 335 48 137 129 124 137 157 170 176 178 182 198 192 190 189 196 193 182 193 190 194 192 187 187 189 208 201 187 201 226 220 209 209 207 188 187 200 162 141
177 153 186 100 14 93 252 278 305 82 41 63 74 91 93 101 132 150 164 187 174 191 202 196 193 199 196 185 174 186 186 198 195 200 200 193 215 200 189 205 217 209 203 203 187 199 198 201 192
150 163 88 12 139 174 306 285 229 193 142 97 85 96 90 89 78 92 136 180 186 202 201 193 180 178 173 186 176 187 197 210 202 178 214 227 231 221 210 210 215 222 202 202 188 194 221 197 209
88 75 52 109 115 150 162 254 150 187 161 137 114 105 94 87 82 81 45 37 188 179 169 140 133 133 116 294 192 174 213 213 221 221 229 228 225 228 225 223 235 225 197 208 195 194 213 215 220
70 105 112 123 209 72 143 265 24 125 132 140 150 147 136 129 119 112 77 54 157 180 158 153 132 136 113 117 63 137 184 211 213 256 260 242 238 222 237 242 242 222 211 204 209 209 197 211 218